^^
Station Historical Data
Daily Summary for January 29, 2018 Units:  English    Metric   Both
« Previous Day
Next Day »
Daily Weekly Monthly Yearly Custom
  High: Low: Average:
Temperature: TemperatureF °F 62.2 °F 77.3 °F
Dew Point: DewpointF °F 28.6 °F 42 °F
Humidity: Humidity% 14% 34%
Wind Speed: WindSpeedMPHmph 0.0mph 1.4mph
Wind Gust: WindSpeedGustMPHmph - -
Wind- - WSW
Pressure: PressureIn in 29.57 in -
Precipitation: 0.00 in    
Historical Graphs
 
 
Tabular Data for January 29, 2018
Time Temperature Dew Point Pressure Wind Wind Speed Wind Gust Humidity Rainfall Rate (Hourly) solar Conditions
TemperatureF °F DewpointF °F PressureIn in Calm     Humidity% HourlyPrecipIn in SolarRadiationWatts/m^2 W/m2 Conditions
00:00 68.2 °F 54.7 °F 29.71 in Calm   1.0 mph 62% 0.00 in 0.0 W/m2
00:05 67.8 °F 54.3 °F 29.72 in Calm     62% 0.00 in 0.0 W/m2
00:10 67.8 °F 54.7 °F 29.72 in Calm   2.0 mph 63% 0.00 in 0.0 W/m2
00:15 67.6 °F 54.7 °F 29.72 in Calm     63% 0.00 in 0.0 W/m2
00:20 67.5 °F 54.5 °F 29.72 in Calm   4.0 mph 63% 0.00 in 0.0 W/m2
00:25 67.5 °F 54.9 °F 29.72 in Calm   4.0 mph 64% 0.00 in 0.0 W/m2
00:31 67.3 °F 54.7 °F 29.71 in Calm   1.0 mph 64% 0.00 in 0.0 W/m2
00:36 67.3 °F 54.7 °F 29.71 in North 2.0 mph 2.0 mph 64% 0.00 in 0.0 W/m2
00:41 66.9 °F 54.3 °F 29.71 in Calm     64% 0.00 in 0.0 W/m2
00:47 66.9 °F 54.3 °F 29.70 in Calm   1.0 mph 64% 0.00 in 0.0 W/m2
00:53 66.7 °F 54.7 °F 29.70 in Calm     65% 0.00 in 0.0 W/m2
00:58 66.6 °F 54.5 °F 29.70 in Calm     65% 0.00 in 0.0 W/m2
01:04 66.6 °F 54.5 °F 29.70 in Calm     65% 0.00 in 0.0 W/m2
01:09 66.4 °F 54.3 °F 29.70 in Calm     65% 0.00 in 0.0 W/m2
01:14 66.0 °F 54.0 °F 29.70 in Calm   1.0 mph 65% 0.00 in 0.0 W/m2
01:20 65.8 °F 54.1 °F 29.69 in Calm   1.0 mph 66% 0.00 in 0.0 W/m2
01:25 65.7 °F 54.0 °F 29.69 in Calm     66% 0.00 in 0.0 W/m2
01:31 65.7 °F 54.0 °F 29.69 in Calm   2.0 mph 66% 0.00 in 0.0 W/m2
01:36 65.5 °F 53.8 °F 29.69 in Calm   1.0 mph 66% 0.00 in 0.0 W/m2
01:41 65.3 °F 54.1 °F 29.68 in Calm     67% 0.00 in 0.0 W/m2
01:46 65.1 °F 54.0 °F 29.68 in Calm     67% 0.00 in 0.0 W/m2
01:51 65.1 °F 54.0 °F 29.68 in Calm     67% 0.00 in 0.0 W/m2
01:56 64.9 °F 53.8 °F 29.68 in Calm   1.0 mph 67% 0.00 in 0.0 W/m2
02:01 64.8 °F 54.0 °F 29.68 in Calm     68% 0.00 in 0.0 W/m2
02:06 64.8 °F 54.0 °F 29.67 in Calm     68% 0.00 in 0.0 W/m2
02:11 64.6 °F 53.8 °F 29.67 in Calm     68% 0.00 in 0.0 W/m2
02:17 64.6 °F 53.8 °F 29.67 in Calm     68% 0.00 in 0.0 W/m2
02:22 64.2 °F 53.4 °F 29.67 in Calm     68% 0.00 in 0.0 W/m2
02:27 64.2 °F 53.4 °F 29.66 in Calm     68% 0.00 in 0.0 W/m2
02:33 64.0 °F 53.6 °F 29.66 in Calm     69% 0.00 in 0.0 W/m2
02:38 63.9 °F 53.1 °F 29.66 in Calm     68% 0.00 in 0.0 W/m2
02:43 63.7 °F 53.2 °F 29.65 in Calm     69% 0.00 in 0.0 W/m2
02:48 63.7 °F 53.2 °F 29.65 in Calm     69% 0.00 in 0.0 W/m2
02:53 63.3 °F 53.4 °F 29.65 in Calm     70% 0.00 in 0.0 W/m2
02:59 63.3 °F 53.4 °F 29.65 in Calm     70% 0.00 in 0.0 W/m2
03:04 63.3 °F 53.4 °F 29.65 in Calm     70% 0.00 in 0.0 W/m2
03:09 63.1 °F 53.2 °F 29.65 in Calm   1.0 mph 70% 0.00 in 0.0 W/m2
03:14 63.0 °F 53.1 °F 29.65 in Calm   1.0 mph 70% 0.00 in 0.0 W/m2
03:19 63.0 °F 53.1 °F 29.65 in Calm     70% 0.00 in 0.0 W/m2
03:24 62.8 °F 53.2 °F 29.65 in Calm     71% 0.00 in 0.0 W/m2
03:29 62.6 °F 53.1 °F 29.65 in Calm   1.0 mph 71% 0.00 in 0.0 W/m2
03:34 62.6 °F 53.1 °F 29.65 in Calm   1.0 mph 71% 0.00 in 0.0 W/m2
03:39 62.4 °F 52.9 °F 29.65 in Calm   2.0 mph 71% 0.00 in 0.0 W/m2
03:45 62.4 °F 52.9 °F 29.64 in Calm   1.0 mph 71% 0.00 in 0.0 W/m2
03:50 62.4 °F 52.9 °F 29.64 in Calm     71% 0.00 in 0.0 W/m2
03:55 62.4 °F 52.9 °F 29.64 in Calm   1.0 mph 71% 0.00 in 0.0 W/m2
04:00 62.2 °F 53.1 °F 29.65 in Calm   1.0 mph 72% 0.00 in 0.0 W/m2
04:05 62.2 °F 53.1 °F 29.65 in Calm   1.0 mph 72% 0.00 in 0.0 W/m2
04:10 62.2 °F 53.1 °F 29.65 in Calm     72% 0.00 in 0.0 W/m2
04:15 62.2 °F 53.1 °F 29.65 in Calm     72% 0.00 in 0.0 W/m2
04:21 62.2 °F 53.1 °F 29.65 in Calm   1.0 mph 72% 0.00 in 0.0 W/m2
04:26 62.2 °F 52.7 °F 29.65 in Calm   1.0 mph 71% 0.00 in 0.0 W/m2
04:31 62.2 °F 51.6 °F 29.64 in SSE 0.9 mph 3.0 mph 68% 0.00 in 0.0 W/m2
04:36 62.2 °F 51.6 °F 29.65 in Calm     68% 0.00 in 0.0 W/m2
04:41 62.4 °F 51.3 °F 29.64 in Calm     67% 0.00 in 0.0 W/m2
04:46 62.4 °F 51.8 °F 29.65 in Calm     68% 0.00 in 0.0 W/m2
04:51 62.8 °F 51.6 °F 29.65 in Calm     67% 0.00 in 0.0 W/m2
04:56 62.8 °F 51.6 °F 29.65 in Calm     67% 0.00 in 0.0 W/m2
05:02 62.8 °F 52.0 °F 29.65 in Calm     68% 0.00 in 0.0 W/m2
05:07 63.0 °F 52.2 °F 29.65 in Calm     68% 0.00 in 0.0 W/m2
05:12 63.0 °F 51.8 °F 29.65 in ESE 2.0 mph 3.0 mph 67% 0.00 in 0.0 W/m2
05:17 63.1 °F 51.6 °F 29.65 in Calm   2.0 mph 66% 0.00 in 0.0 W/m2
05:22 63.1 °F 50.4 °F 29.65 in ESE 2.0 mph 3.0 mph 63% 0.00 in 0.0 W/m2
05:27 63.1 °F 50.4 °F 29.65 in Calm   1.0 mph 63% 0.00 in 0.0 W/m2
05:32 63.1 °F 50.4 °F 29.65 in Calm   2.0 mph 63% 0.00 in 0.0 W/m2
05:37 63.1 °F 50.4 °F 29.65 in Calm   2.0 mph 63% 0.00 in 0.0 W/m2
05:43 63.1 °F 50.7 °F 29.66 in Calm     64% 0.00 in 0.0 W/m2
05:48 63.3 °F 50.5 °F 29.66 in Calm   2.0 mph 63% 0.00 in 0.0 W/m2
05:53 63.3 °F 50.5 °F 29.66 in Calm   1.0 mph 63% 0.00 in 0.0 W/m2
05:58 63.3 °F 50.5 °F 29.66 in ESE 0.9 mph 2.0 mph 63% 0.00 in 0.0 W/m2
06:03 63.5 °F 50.2 °F 29.66 in ESE 0.9 mph 2.0 mph 62% 0.00 in 0.0 W/m2
06:08 63.5 °F 50.2 °F 29.67 in Calm   1.0 mph 62% 0.00 in 0.0 W/m2
06:13 63.7 °F 50.9 °F 29.67 in Calm   1.0 mph 63% 0.00 in 0.0 W/m2
06:18 63.7 °F 50.9 °F 29.67 in Calm     63% 0.00 in 0.0 W/m2
06:24 63.7 °F 50.4 °F 29.67 in Calm     62% 0.00 in 0.0 W/m2
06:29 63.5 °F 50.2 °F 29.67 in Calm   2.0 mph 62% 0.00 in 7.0 W/m2
06:34 63.5 °F 49.8 °F 29.68 in Calm     61% 0.00 in 12.0 W/m2
06:39 63.7 °F 49.5 °F 29.68 in Calm     60% 0.00 in 16.0 W/m2
06:44 63.7 °F 49.5 °F 29.68 in East 0.9 mph 3.0 mph 60% 0.00 in 18.0 W/m2
06:49 63.7 °F 49.1 °F 29.69 in Calm   2.0 mph 59% 0.00 in 21.0 W/m2
06:54 63.7 °F 48.6 °F 29.69 in Calm   2.0 mph 58% 0.00 in 26.0 W/m2
06:59 63.7 °F 49.1 °F 29.69 in Calm   1.0 mph 59% 0.00 in 32.0 W/m2
07:05 63.9 °F 49.3 °F 29.69 in Calm     59% 0.00 in 37.0 W/m2
07:10 63.9 °F 48.7 °F 29.69 in Calm   2.0 mph 58% 0.00 in 42.0 W/m2
07:15 64.0 °F 48.9 °F 29.70 in Calm     58% 0.00 in 47.0 W/m2
07:20 64.0 °F 48.9 °F 29.70 in Calm   1.0 mph 58% 0.00 in 47.0 W/m2
07:25 64.0 °F 48.6 °F 29.70 in Calm   1.0 mph 57% 0.00 in 46.0 W/m2
07:30 64.2 °F 48.7 °F 29.70 in Calm   1.0 mph 57% 0.00 in 51.0 W/m2
07:35 64.6 °F 48.9 °F 29.70 in Calm   2.0 mph 57% 0.00 in 67.0 W/m2
07:40 64.8 °F 48.2 °F 29.71 in Calm   2.0 mph 55% 0.00 in 72.0 W/m2
07:45 64.9 °F 47.8 °F 29.71 in Calm     54% 0.00 in 109.0 W/m2
07:50 65.1 °F 47.1 °F 29.71 in Calm     52% 0.00 in 104.0 W/m2
07:56 65.7 °F 47.5 °F 29.71 in Calm     52% 0.00 in 105.0 W/m2
08:01 66.0 °F 46.4 °F 29.71 in Calm   1.0 mph 49% 0.00 in 111.0 W/m2
08:06 66.7 °F 47.5 °F 29.71 in Calm     50% 0.00 in 123.0 W/m2
08:11 67.3 °F 44.1 °F 29.71 in Calm     43% 0.00 in 229.0 W/m2
08:16 68.0 °F 43.3 °F 29.71 in Calm   1.0 mph 41% 0.00 in 209.0 W/m2
08:21 68.7 °F 42.8 °F 29.72 in Calm   1.0 mph 39% 0.00 in 394.0 W/m2
08:26 70.0 °F 42.4 °F 29.72 in Calm     37% 0.00 in 499.0 W/m2
08:31 71.1 °F 42.8 °F 29.72 in Calm   2.0 mph 36% 0.00 in 617.0 W/m2
08:36 72.1 °F 42.3 °F 29.72 in Calm   3.0 mph 34% 0.00 in 610.0 W/m2
08:42 73.6 °F 43.5 °F 29.72 in West 0.9 mph 2.0 mph 34% 0.00 in 629.0 W/m2
08:47 74.7 °F 42.1 °F 29.72 in Calm   2.0 mph 31% 0.00 in 594.0 W/m2
08:52 75.4 °F 42.6 °F 29.72 in WSW 0.9 mph 5.0 mph 31% 0.00 in 570.0 W/m2
08:57 76.1 °F 41.5 °F 29.72 in WSW 2.9 mph 5.0 mph 29% 0.00 in 559.0 W/m2
09:02 76.6 °F 42.1 °F 29.72 in WSW 4.0 mph 8.0 mph 29% 0.00 in 564.0 W/m2
09:07 77.2 °F 42.4 °F 29.71 in Calm   1.0 mph 29% 0.00 in 596.0 W/m2
09:12 77.9 °F 42.3 °F 29.72 in West 2.0 mph 3.0 mph 28% 0.00 in 608.0 W/m2
09:17 78.3 °F 41.5 °F 29.72 in Calm   4.0 mph 27% 0.00 in 628.0 W/m2
09:22 79.0 °F 43.2 °F 29.71 in Calm   3.0 mph 28% 0.00 in 654.0 W/m2
09:28 80.1 °F 42.1 °F 29.71 in Calm   2.0 mph 26% 0.00 in 687.0 W/m2
09:33 80.6 °F 41.5 °F 29.71 in Calm   2.0 mph 25% 0.00 in 698.0 W/m2
09:38 81.0 °F 40.8 °F 29.71 in West 2.9 mph 5.0 mph 24% 0.00 in 710.0 W/m2
09:43 80.8 °F 40.6 °F 29.71 in Calm   4.0 mph 24% 0.00 in 707.0 W/m2
09:48 80.8 °F 40.6 °F 29.71 in WNW 2.0 mph 5.0 mph 24% 0.00 in 707.0 W/m2
09:53 81.3 °F 42.1 °F 29.71 in SW 0.9 mph 3.0 mph 25% 0.00 in 724.0 W/m2
09:58 81.7 °F 39.2 °F 29.71 in WSW 4.9 mph 7.0 mph 22% 0.00 in 763.0 W/m2
10:03 81.5 °F 39.0 °F 29.72 in NNW 0.9 mph 4.0 mph 22% 0.00 in 789.0 W/m2
10:09 81.9 °F 39.2 °F 29.72 in Calm   2.0 mph 22% 0.00 in 749.0 W/m2
10:15 82.4 °F 39.7 °F 29.72 in Calm   2.0 mph 22% 0.00 in 742.0 W/m2
10:20 82.8 °F 40.1 °F 29.72 in NNW 2.9 mph 5.0 mph 22% 0.00 in 772.0 W/m2
10:25 83.7 °F 39.6 °F 29.72 in SW 0.9 mph 4.0 mph 21% 0.00 in 795.0 W/m2
10:30 84.0 °F 41.0 °F 29.72 in West 2.9 mph 4.0 mph 22% 0.00 in 782.0 W/m2
10:35 84.4 °F 39.0 °F 29.72 in Calm   2.0 mph 20% 0.00 in 816.0 W/m2
10:40 84.7 °F 39.2 °F 29.72 in West 0.9 mph 7.0 mph 20% 0.00 in 861.0 W/m2
10:45 85.5 °F 39.7 °F 29.71 in NNE 4.9 mph 5.0 mph 20% 0.00 in 889.0 W/m2
10:50 85.6 °F 39.9 °F 29.71 in NE 2.0 mph 7.0 mph 20% 0.00 in 904.0 W/m2
10:55 85.6 °F 39.9 °F 29.71 in NW 2.0 mph 6.0 mph 20% 0.00 in 904.0 W/m2
11:01 85.8 °F 40.1 °F 29.71 in NNW 2.9 mph 3.0 mph 20% 0.00 in 923.0 W/m2
11:06 86.2 °F 40.5 °F 29.71 in NW 2.0 mph 4.0 mph 20% 0.00 in 933.0 W/m2
11:12 86.7 °F 39.6 °F 29.71 in North 2.9 mph 7.0 mph 19% 0.00 in 947.0 W/m2
11:19 87.6 °F 38.8 °F 29.71 in NNW 2.9 mph 3.0 mph 18% 0.00 in 969.0 W/m2
11:24 88.0 °F 39.2 °F 29.71 in Calm   2.0 mph 18% 0.00 in 997.0 W/m2
11:29 88.3 °F 39.4 °F 29.71 in North 8.1 mph 8.1 mph 18% 0.00 in 974.0 W/m2
11:34 88.9 °F 38.5 °F 29.70 in North 2.9 mph 6.0 mph 17% 0.00 in 1005.0 W/m2
11:39 88.7 °F 38.3 °F 29.70 in Calm   5.0 mph 17% 0.00 in 997.0 W/m2
11:44 88.7 °F 38.3 °F 29.70 in WNW 2.0 mph 8.0 mph 17% 0.00 in 1009.0 W/m2
11:50 88.9 °F 39.9 °F 29.70 in WNW 2.0 mph 5.0 mph 18% 0.00 in 1000.0 W/m2
11:55 89.4 °F 38.8 °F 29.70 in WNW 6.9 mph 7.0 mph 17% 0.00 in 1020.0 W/m2
12:00 90.1 °F 39.4 °F 29.69 in WNW 0.9 mph 8.0 mph 17% 0.00 in 1028.0 W/m2
12:05 90.7 °F 39.9 °F 29.69 in WSW 0.9 mph 4.0 mph 17% 0.00 in 1030.0 W/m2
12:10 90.9 °F 38.5 °F 29.69 in North 2.9 mph 9.0 mph 16% 0.00 in 1032.0 W/m2
12:15 91.0 °F 38.7 °F 29.69 in NW 2.9 mph 5.0 mph 16% 0.00 in 1041.0 W/m2
12:20 91.0 °F 40.1 °F 29.68 in WNW 0.9 mph 3.0 mph 17% 0.00 in 1046.0 W/m2
12:25 91.0 °F 40.1 °F 29.68 in East 2.0 mph 2.0 mph 17% 0.00 in 1120.0 W/m2
12:30 91.4 °F 38.8 °F 29.68 in NNW 6.9 mph 8.0 mph 16% 0.00 in 411.0 W/m2
12:36 91.0 °F 38.7 °F 29.68 in WNW 2.0 mph 5.0 mph 16% 0.00 in 1157.0 W/m2
12:41 91.2 °F 40.3 °F 29.68 in NW 6.9 mph 8.0 mph 17% 0.00 in 1146.0 W/m2
12:46 91.8 °F 39.2 °F 29.67 in WNW 2.9 mph 3.0 mph 16% 0.00 in 1179.0 W/m2
12:52 92.1 °F 39.6 °F 29.67 in NW 2.9 mph 9.0 mph 16% 0.00 in 721.0 W/m2
12:57 92.1 °F 39.6 °F 29.67 in WSW 2.9 mph 7.0 mph 16% 0.00 in 1318.0 W/m2
13:02 91.9 °F 39.4 °F 29.67 in Calm   8.0 mph 16% 0.00 in 802.0 W/m2
13:07 92.5 °F 39.7 °F 29.66 in Calm   3.0 mph 16% 0.00 in 1366.0 W/m2
13:12 93.0 °F 40.3 °F 29.66 in North 4.0 mph 9.0 mph 16% 0.00 in 773.0 W/m2
13:17 93.4 °F 40.5 °F 29.66 in NNW 4.9 mph 8.0 mph 16% 0.00 in 710.0 W/m2
13:23 93.4 °F 40.5 °F 29.66 in West 2.9 mph 7.0 mph 16% 0.00 in 951.0 W/m2
13:28 93.7 °F 39.2 °F 29.66 in North 2.9 mph 6.0 mph 15% 0.00 in 654.0 W/m2
13:33 93.7 °F 39.2 °F 29.65 in NE 4.0 mph 6.0 mph 15% 0.00 in 489.0 W/m2
13:38 93.2 °F 38.7 °F 29.65 in NNW 2.9 mph 8.0 mph 15% 0.00 in 596.0 W/m2
13:43 92.7 °F 39.9 °F 29.65 in NW 6.9 mph 8.0 mph 16% 0.00 in 1111.0 W/m2
13:48 92.8 °F 38.5 °F 29.65 in NNW 0.9 mph 5.0 mph 15% 0.00 in 990.0 W/m2
13:53 93.4 °F 40.5 °F 29.65 in NNW 4.9 mph 8.0 mph 16% 0.00 in 464.0 W/m2
13:58 92.8 °F 40.1 °F 29.64 in NW 0.9 mph 7.0 mph 16% 0.00 in 568.0 W/m2
14:03 92.8 °F 40.1 °F 29.64 in Calm   5.0 mph 16% 0.00 in 529.0 W/m2
14:09 92.8 °F 40.1 °F 29.64 in West 4.9 mph 5.0 mph 16% 0.00 in 541.0 W/m2
14:14 92.7 °F 39.9 °F 29.64 in North 4.9 mph 5.0 mph 16% 0.00 in 580.0 W/m2
14:19 92.7 °F 39.9 °F 29.63 in SW 2.0 mph 6.0 mph 16% 0.00 in 522.0 W/m2
14:24 92.1 °F 39.6 °F 29.63 in ENE 4.0 mph 7.0 mph 16% 0.00 in 471.0 W/m2
14:29 91.9 °F 39.4 °F 29.63 in NNW 4.9 mph 7.0 mph 16% 0.00 in 529.0 W/m2
14:34 91.9 °F 39.4 °F 29.63 in SW 0.9 mph 7.0 mph 16% 0.00 in 362.0 W/m2
14:39 91.8 °F 40.8 °F 29.63 in Calm   5.0 mph 17% 0.00 in 313.0 W/m2
14:44 91.0 °F 40.1 °F 29.63 in NW 2.9 mph 9.0 mph 17% 0.00 in 295.0 W/m2
14:49 90.7 °F 39.9 °F 29.63 in West 2.0 mph 3.0 mph 17% 0.00 in 281.0 W/m2
14:54 90.3 °F 39.6 °F 29.63 in Calm   11.0 mph 17% 0.00 in 267.0 W/m2
15:00 90.1 °F 39.4 °F 29.62 in Calm   3.0 mph 17% 0.00 in 271.0 W/m2
15:05 90.0 °F 40.8 °F 29.62 in WNW 4.0 mph 7.0 mph 18% 0.00 in 244.0 W/m2
15:10 90.1 °F 41.0 °F 29.62 in WSW 4.0 mph 6.0 mph 18% 0.00 in 234.0 W/m2
15:15 89.8 °F 40.6 °F 29.62 in Calm   7.0 mph 18% 0.00 in 232.0 W/m2
15:20 89.4 °F 41.7 °F 29.62 in WSW 0.9 mph 1.0 mph 19% 0.00 in 243.0 W/m2
15:25 89.6 °F 40.5 °F 29.62 in Calm   5.0 mph 18% 0.00 in 271.0 W/m2
15:30 89.6 °F 41.9 °F 29.62 in Calm   2.0 mph 19% 0.00 in 295.0 W/m2
15:36 89.6 °F 40.5 °F 29.62 in NNW 2.0 mph 3.0 mph 18% 0.00 in 309.0 W/m2
15:41 89.8 °F 40.6 °F 29.62 in NNW 4.9 mph 9.0 mph 18% 0.00 in 318.0 W/m2
15:46 89.6 °F 41.9 °F 29.62 in Calm   5.0 mph 19% 0.00 in 302.0 W/m2
15:51 89.6 °F 40.5 °F 29.61 in NNW 2.9 mph 4.0 mph 18% 0.00 in 304.0 W/m2
15:56 89.8 °F 40.6 °F 29.61 in NNW 4.0 mph 7.0 mph 18% 0.00 in 343.0 W/m2
16:01 89.8 °F 40.6 °F 29.61 in East 2.0 mph 5.0 mph 18% 0.00 in 332.0 W/m2
16:06 89.8 °F 40.6 °F 29.60 in NNE 6.0 mph 10.0 mph 18% 0.00 in 295.0 W/m2
16:11 89.8 °F 40.6 °F 29.60 in Calm   3.0 mph 18% 0.00 in 258.0 W/m2
16:16 89.8 °F 40.6 °F 29.60 in Calm   2.0 mph 18% 0.00 in 223.0 W/m2
16:22 89.8 °F 40.6 °F 29.60 in NNW 4.0 mph 5.0 mph 18% 0.00 in 244.0 W/m2
16:27 89.8 °F 40.6 °F 29.59 in NW 0.9 mph 3.0 mph 18% 0.00 in 239.0 W/m2
16:32 89.8 °F 39.2 °F 29.59 in Calm   4.0 mph 17% 0.00 in 272.0 W/m2
16:37 90.1 °F 41.0 °F 29.59 in North 0.9 mph 3.0 mph 18% 0.00 in 838.0 W/m2
16:42 90.7 °F 41.4 °F 29.59 in SE 2.9 mph 3.0 mph 18% 0.00 in 264.0 W/m2
16:47 91.8 °F 40.8 °F 29.59 in SW 2.9 mph 7.0 mph 17% 0.00 in 817.0 W/m2
16:52 92.7 °F 39.9 °F 29.59 in WSW 4.9 mph 12.0 mph 16% 0.00 in 814.0 W/m2
16:57 93.0 °F 40.3 °F 29.59 in SSW 2.0 mph 5.0 mph 16% 0.00 in 248.0 W/m2
17:02 92.5 °F 39.7 °F 29.58 in SSE 0.9 mph 3.0 mph 16% 0.00 in 260.0 W/m2
17:07 92.1 °F 39.6 °F 29.58 in WSW 0.9 mph 4.0 mph 16% 0.00 in 645.0 W/m2
17:12 92.3 °F 41.2 °F 29.58 in WSW 4.0 mph 9.0 mph 17% 0.00 in 234.0 W/m2
17:18 92.1 °F 39.6 °F 29.58 in West 6.0 mph 9.0 mph 16% 0.00 in 464.0 W/m2
17:23 91.6 °F 39.0 °F 29.58 in Calm   4.0 mph 16% 0.00 in 193.0 W/m2
17:28 91.0 °F 40.1 °F 29.58 in West 0.9 mph 7.0 mph 17% 0.00 in 181.0 W/m2
17:33 90.7 °F 39.9 °F 29.58 in West 0.9 mph 5.0 mph 17% 0.00 in 162.0 W/m2
17:38 90.1 °F 39.4 °F 29.58 in SSW 2.0 mph 2.0 mph 17% 0.00 in 148.0 W/m2
17:43 89.8 °F 39.2 °F 29.57 in Calm   3.0 mph 17% 0.00 in 139.0 W/m2
17:48 89.6 °F 40.5 °F 29.58 in WSW 2.9 mph 3.0 mph 18% 0.00 in 142.0 W/m2
17:53 89.2 °F 38.7 °F 29.58 in SW 2.0 mph 7.0 mph 17% 0.00 in 144.0 W/m2
17:59 89.1 °F 40.1 °F 29.58 in Calm   3.0 mph 18% 0.00 in 118.0 W/m2
18:04 88.9 °F 39.9 °F 29.58 in WSW 2.9 mph 3.0 mph 18% 0.00 in 95.0 W/m2
18:09 88.7 °F 39.7 °F 29.58 in WSW 0.9 mph 5.0 mph 18% 0.00 in 74.0 W/m2
18:14 88.5 °F 39.6 °F 29.58 in Calm   3.0 mph 18% 0.00 in 65.0 W/m2
18:19 88.3 °F 39.4 °F 29.58 in Calm   1.0 mph 18% 0.00 in 60.0 W/m2
18:24 88.3 °F 39.4 °F 29.58 in Calm   5.0 mph 18% 0.00 in 60.0 W/m2
18:29 88.2 °F 37.9 °F 29.58 in Calm   2.0 mph 17% 0.00 in 70.0 W/m2
18:34 88.2 °F 39.4 °F 29.58 in Calm   1.0 mph 18% 0.00 in 178.0 W/m2
18:36 88.3 °F 39.4 °F 29.58 in Calm   3.0 mph 18% 0.00 in 200.0 W/m2
18:42 88.9 °F 38.5 °F 29.58 in ESE 2.0 mph 3.0 mph 17% 0.00 in 56.0 W/m2
18:47 88.9 °F 38.5 °F 29.58 in SW 0.9 mph 5.0 mph 17% 0.00 in 120.0 W/m2
18:52 88.9 °F 35.2 °F 29.58 in WSW 2.0 mph 7.0 mph 15% 0.00 in 111.0 W/m2
18:57 88.9 °F 35.2 °F 29.59 in Calm   6.0 mph 15% 0.00 in 69.0 W/m2
19:02 88.5 °F 33.3 °F 29.59 in SW 4.0 mph 8.0 mph 14% 0.00 in 65.0 W/m2
19:07 88.0 °F 32.9 °F 29.59 in SW 2.9 mph 10.0 mph 14% 0.00 in 54.0 W/m2
19:12 87.4 °F 32.4 °F 29.59 in SW 2.9 mph 10.0 mph 14% 0.00 in 51.0 W/m2
19:17 86.9 °F 33.6 °F 29.59 in WSW 10.1 mph 12.0 mph 15% 0.00 in 39.0 W/m2
19:22 86.2 °F 33.1 °F 29.60 in West 2.0 mph 7.0 mph 15% 0.00 in 28.0 W/m2
19:27 85.5 °F 32.5 °F 29.61 in West 4.9 mph 16.0 mph 15% 0.00 in 19.0 W/m2
19:33 84.7 °F 32.0 °F 29.61 in SW 4.9 mph 8.0 mph 15% 0.00 in 14.0 W/m2
19:38 84.2 °F 31.5 °F 29.62 in SW 4.0 mph 16.0 mph 15% 0.00 in 7.0 W/m2
19:43 83.5 °F 32.5 °F 29.62 in WSW 6.9 mph 12.0 mph 16% 0.00 in 0.0 W/m2
19:48 83.1 °F 32.4 °F 29.62 in WSW 2.0 mph 9.0 mph 16% 0.00 in 0.0 W/m2
19:53 82.8 °F 32.0 °F 29.62 in WSW 4.9 mph 8.0 mph 16% 0.00 in 0.0 W/m2
19:58 82.2 °F 31.6 °F 29.63 in WSW 4.0 mph 10.0 mph 16% 0.00 in 0.0 W/m2
20:03 81.9 °F 31.3 °F 29.63 in WNW 8.1 mph 10.0 mph 16% 0.00 in 0.0 W/m2
20:08 81.3 °F 30.9 °F 29.64 in SW 10.1 mph 10.1 mph 16% 0.00 in 0.0 W/m2
20:13 81.0 °F 30.6 °F 29.64 in SW 6.9 mph 7.0 mph 16% 0.00 in 0.0 W/m2
20:19 80.8 °F 31.8 °F 29.64 in WSW 2.9 mph 5.0 mph 17% 0.00 in 0.0 W/m2
20:24 80.2 °F 31.5 °F 29.65 in WSW 4.0 mph 7.0 mph 17% 0.00 in 0.0 W/m2
20:29 80.1 °F 31.3 °F 29.65 in WSW 8.9 mph 11.0 mph 17% 0.00 in 0.0 W/m2
20:34 79.5 °F 30.9 °F 29.66 in WSW 2.9 mph 9.0 mph 17% 0.00 in 0.0 W/m2
20:39 79.3 °F 30.7 °F 29.66 in WSW 2.0 mph 5.0 mph 17% 0.00 in 0.0 W/m2
20:44 79.0 °F 30.4 °F 29.66 in WSW 0.9 mph 2.0 mph 17% 0.00 in 0.0 W/m2
20:49 78.6 °F 30.2 °F 29.66 in Calm   1.0 mph 17% 0.00 in 0.0 W/m2
20:54 78.4 °F 30.0 °F 29.67 in Calm   5.0 mph 17% 0.00 in 0.0 W/m2
20:59 78.3 °F 29.8 °F 29.67 in Calm   1.0 mph 17% 0.00 in 0.0 W/m2
21:05 77.9 °F 29.7 °F 29.67 in West 0.9 mph 5.0 mph 17% 0.00 in 0.0 W/m2
21:10 77.5 °F 29.3 °F 29.67 in Calm   1.0 mph 17% 0.00 in 0.0 W/m2
21:15 77.4 °F 29.1 °F 29.68 in Calm     17% 0.00 in 0.0 W/m2
21:20 77.0 °F 30.2 °F 29.68 in Calm   2.0 mph 18% 0.00 in 0.0 W/m2
21:25 76.6 °F 28.6 °F 29.68 in WSW 2.0 mph 5.0 mph 17% 0.00 in 0.0 W/m2
21:30 76.5 °F 29.8 °F 29.69 in SSW 2.0 mph 4.0 mph 18% 0.00 in 0.0 W/m2
21:35 76.3 °F 29.7 °F 29.69 in West 4.9 mph 7.0 mph 18% 0.00 in 0.0 W/m2
21:40 75.9 °F 29.3 °F 29.69 in WNW 2.0 mph 3.0 mph 18% 0.00 in 0.0 W/m2
21:45 75.7 °F 29.3 °F 29.69 in WSW 4.0 mph 7.0 mph 18% 0.00 in 0.0 W/m2
21:51 75.6 °F 29.1 °F 29.69 in West 4.9 mph 7.0 mph 18% 0.00 in 0.0 W/m2
21:56 75.6 °F 29.1 °F 29.69 in WSW 4.9 mph 8.0 mph 18% 0.00 in 0.0 W/m2
22:02 75.4 °F 28.9 °F 29.69 in NW 2.9 mph 8.0 mph 18% 0.00 in 0.0 W/m2
22:07 75.4 °F 30.2 °F 29.69 in SSW 2.0 mph 6.0 mph 19% 0.00 in 0.0 W/m2
22:12 75.2 °F 30.0 °F 29.70 in WSW 0.9 mph 11.0 mph 19% 0.00 in 0.0 W/m2
22:17 75.0 °F 30.0 °F 29.70 in West 0.9 mph 2.0 mph 19% 0.00 in 0.0 W/m2
22:22 74.8 °F 29.8 °F 29.70 in WSW 2.0 mph 4.0 mph 19% 0.00 in 0.0 W/m2
22:27 74.7 °F 29.7 °F 29.70 in Calm   3.0 mph 19% 0.00 in 0.0 W/m2
22:32 74.5 °F 29.5 °F 29.70 in SW 2.0 mph 5.0 mph 19% 0.00 in 0.0 W/m2
22:38 74.3 °F 30.6 °F 29.70 in WSW 2.9 mph 6.0 mph 20% 0.00 in 0.0 W/m2
22:43 74.1 °F 30.6 °F 29.70 in Calm   1.0 mph 20% 0.00 in 0.0 W/m2
22:48 73.9 °F 30.4 °F 29.71 in Calm   5.0 mph 20% 0.00 in 0.0 W/m2
22:53 73.8 °F 30.2 °F 29.71 in Calm     20% 0.00 in 0.0 W/m2
22:58 73.6 °F 30.0 °F 29.71 in West 4.9 mph 8.0 mph 20% 0.00 in 0.0 W/m2
23:03 73.2 °F 29.7 °F 29.71 in Calm   5.0 mph 20% 0.00 in 0.0 W/m2
23:08 73.2 °F 30.9 °F 29.71 in Calm   4.0 mph 21% 0.00 in 0.0 W/m2
23:13 73.0 °F 30.7 °F 29.71 in Calm   5.0 mph 21% 0.00 in 0.0 W/m2
23:18 72.9 °F 30.6 °F 29.71 in SW 0.9 mph 3.0 mph 21% 0.00 in 0.0 W/m2
23:23 72.9 °F 30.6 °F 29.71 in WSW 2.9 mph 7.0 mph 21% 0.00 in 0.0 W/m2
23:28 72.7 °F 30.6 °F 29.71 in West 2.9 mph 3.0 mph 21% 0.00 in 0.0 W/m2
23:33 72.7 °F 30.6 °F 29.71 in Calm   3.0 mph 21% 0.00 in 0.0 W/m2
23:38 72.3 °F 30.2 °F 29.71 in Calm   3.0 mph 21% 0.00 in 0.0 W/m2
23:43 72.3 °F 30.2 °F 29.71 in Calm   4.0 mph 21% 0.00 in 0.0 W/m2
23:48 72.1 °F 30.0 °F 29.71 in Calm   1.0 mph 21% 0.00 in 0.0 W/m2
23:53 72.1 °F 30.0 °F 29.71 in Calm   1.0 mph 21% 0.00 in 0.0 W/m2
23:58 72.0 °F 31.1 °F 29.70 in Calm     22% 0.00 in 0.0 W/m2
Olympia, Windhoek, Namibia
Compliments of Weather Underground - 3.25 mb